Regional Weather Roundup
Issued by NWS

Home | Current Version | Previous Version | Graphics & Text | Print | Product List | Glossary On
Versions: 1 2 3 4 5 6 7 8 9 10 11 12 13 14 15 16 17 18 19 20 21 22 23 24 25 26 27 28 29 30 31 32 33 34 35 36 37 38 39 40 41 42 43 44 45 46 47 48 49 50
000
ASUS44 KMEG 120900
RWRTN
TENNESSEE HOURLY STATE WEATHER ROUNDUP
NATIONAL WEATHER SERVICE MEMPHIS TN
300 AM CST FRI FEB 12 2016

TNZ002-004-019-021-049-052-054-088>092-121000-
WEST TENNESSEE

CITY           SKY/WX    TMP DP  RH WIND       PRES   REMARKS
MEMPHIS INTL   PTCLDY    38  24  57 N7        30.18R WCI  33
NWS MEMPHIS      N/A     36 N/A N/A MISG        N/A
JACKSON        CLOUDY    35  23  61 NE3       30.17F
DYERSBURG      CLOUDY    34  25  69 E5        30.20F WCI  30
UNION CITY     PTCLDY    30  21  69 E3        30.16F
PARIS          MOCLDY    28  19  69 NE7       30.17F WCI  21
LEXINGTON      CLOUDY    34  21  60 NE3       30.14F
$$

TNZ008-025-027-028-033-062-065-066-121000-
NORTH MIDDLE TENNESSEE

CITY           SKY/WX    TMP DP  RH WIND       PRES   REMARKS
NASHVILLE      CLOUDY    34  21  59 CALM      30.17S
CLARKSVILLE    CLOUDY    31  19  61 N7        30.19F WCI  24
COOKEVILLE     PTCLDY    32  25  74 CALM      30.10F
CROSSVILLE     CLOUDY    30  20  66 SE5       30.10F WCI  25
$$

TNZ061-075-076-078-094-096-097-121000-
SOUTH MIDDLE TENNESSEE

CITY           SKY/WX    TMP DP  RH WIND       PRES   REMARKS
TULLAHOMA      CLEAR     30  23  74 CALM      30.13F
WINCHESTER     MOCLDY    32  27  80 CALM      30.14F
MCMINNVILLE    PTCLDY    32  25  74 CALM      30.11F
COLUMBIA       CLOUDY    34  27  75 CALM      30.14S
SHELBYVILLE    CLOUDY    34  27  75 CALM      30.15S
$$

TNZ017-018-042-046-047-121000-
NORTHEAST TENNESSEE

CITY           SKY/WX    TMP DP  RH WIND       PRES   REMARKS
TRI CITIES     CLOUDY    27  21  78 CALM      30.14F
$$

TNZ012-013-036-069-073-074-121000-
CENTRAL EAST TENNESSEE

CITY           SKY/WX    TMP DP  RH WIND       PRES   REMARKS
KNOXVILLE      CLOUDY    31  20  63 CALM      30.15F
OAK RIDGE      CLOUDY    32  18  56 CALM      30.18F
GATLINBURG     CLOUDY    28  19  69 CALM      30.15F
$$

TNZ083-085-099-121000-
SOUTHEAST TENNESSEE

CITY           SKY/WX    TMP DP  RH WIND       PRES   REMARKS
CHATTANOOGA    CLOUDY    35  21  56 N5        30.18F WCI  31
$$

SKY/WX REPORTED AS FAIR MEANS FEW OR NO CLOUDS BELOW
12 THOUSAND FEET.




USA.gov is the U.S. government's official web portal to all federal, state and local government web resources and services.